Showing default

GSAT 31, 44035

Orbit data source: Space-Track

GSAT 31, 44035 is a payload satellite owned by ISRO (IN) in GEO that was launched on Tue, 05 Feb 2019 UTC via an ARIANE 5ECA launch vehicle from the French Guiana (FRGUI). Payload-class satellites include a variety of spacecraft equipped with specific instruments for various scientific and technological missions. These include communications satellites like Starlink; space stations such as the ISS; scientific satellites like the Hubble; Earth observation satellites from companies like Planet Labs, Umbra, and HawkEye 360; GPS; miniature CubeSats for education and research; and military/defense satellites.

Not visible in the next 10 days
Identifier
44035, 2019-007B
Orbit
GEO
Country
Flag of ININ / IND
Related business
Manufacturer
ISRO SAC/Banga
Mission
Operational Civil Communications
Bus & Motor
I2K, ISRO LAM
Mass
2,536 kg wet, ~1,500 kg dry
Launch date (UTC)
2019-02-05 (7 years ago)
Launch vehicle
ARIANE 5ECA
Launch site
French Guiana (FRGUI)
Object type
Payload
Rocket body
Debris
Shape & HBR
Box + 2 Pan, 5.0 m
Radar Cross Section
12.304 m², Large (>1 m²)

Expand to show TLE details & history
Last TLE update: 2 days ago

TLE from 2 days ago
0 GSAT 31
1 44035U 19007B   26171.26850186  .00000120  00000-0  00000+0 0  9998
2 44035   0.0570 256.5598 0001511 112.5506  43.9069  1.00274329 26993
Epoch: 2026-06-20T06:26Z
TLE epoch observation values (Epoch: 2026-06-20T06:26:38.560Z)
Latitude
0.03734°
Longitude
47.8954°
Altitude
35,780.792 km
Speed
3.075 km/s
True Right ascension
03h 32m 09s
True Declination
0° 02' 14"
Sunlit
Object was in daylight at epoch
Visualization orbit readout
Latitude
Unknown
Longitude
Unknown
Altitude
Unknown
Speed
Unknown
Apparent Right ascension
Unknown
Apparent Declination
Unknown
Sunlit
N/A
Visualization observer readout
Local Sidereal Time
21:35:02
Azimuth
Unknown
Elevation
Unknown
Doppler factor
Unknown
Orbital elements
Apogee altitude
35,793.323 km
Perigee altitude
35,780.581 km
Semi-major axis
42,165.089 km
Eccentricity
0.00015
Inclination
0.057°
RAAN
256.5598°
Arg. of periapsis
112.5506°
True anomaly
43.91891°
Mean anomaly
43.9069°
Eccentric anomaly
43.9129°
Mean motion
0.25068 °/min
Orbital period
1,436.11 mins
BSTAR
0
Loading maneuver chart data...
Computing Atmospheric mass density...
Loading historical data...
Loading historical data...
Loading historical data...
Loading historical data...
Loading historical data...
Loading historical data...
Loading historical data...
Other satellites on launch #7 in the year 2019 (2019-02-05 UTC)

Documentation

Showing up to 5 results
|